Regional Weather Roundup
Issued by NWS

Home | Current Version | Previous Version | Text Only | Print | Product List | Glossary On
Versions: 1 2 3 4 5 6 7 8 9 10 11 12 13 14 15 16 17 18 19 20 21 22 23 24 25 26 27 28 29 30 31 32 33 34 35 36 37 38 39 40 41 42 43 44 45 46 47 48 49 50
000
ASUS44 KFWD 240915
RWRTX
NORTH TEXAS HOURLY WEATHER ROUNDUP
NATIONAL WEATHER SERVICE FORT WORTH TX
400 AM CDT THU APR 24 2014

NOTE: "FAIR" INDICATES FEW OR NO CLOUDS BELOW 12,000 FEET WITH NO
SIGNIFICANT WEATHER AND/OR OBSTRUCTIONS TO VISIBILITY.

TXZ118-119-241000-
DALLAS/FORT WORTH METROPLEX

CITY           SKY/WX    TMP DP  RH WIND       PRES   REMARKS
DFW AIRPORT    CLOUDY    70  61  73 S20       29.75R
DALLAS LOVE    CLOUDY    70  61  73 S16       29.77R
FTW MEACHAM    PTCLDY    69  62  78 S17G26    29.73S
DAL-EXECUTIVE  MOCLDY    70  63  78 S9G20     29.77R
FTW-ALLIANCE   PTCLDY    68  62  81 S13G22    29.74S
FTW-NAS-JRB    PTCLDY    71  60  68 S17G26    29.78R
FTW-SPINKS     PTCLDY    68  61  76 S16G24    29.77R
ARLINGTON      MOCLDY    69  61  75 S15G21    29.76R
GRAND PRAIRIE  PTCLDY    68  61  77 S12G20    29.79R
ADDISON        CLOUDY    71  61  71 S14G25    29.79R
MESQUITE       MOCLDY    67  63  86 S8        29.78R
LANCASTER      MOCLDY    68  60  76 S12       29.79R
$$

TXZ091>094-102>105-117-120-121-131>134-241000-
NORTH CENTRAL TEXAS

CITY           SKY/WX    TMP DP  RH WIND       PRES   REMARKS
SHRMAN/DENISON MOCLDY    68  61  78 SE13      29.77S
GAINESVILLE    PTCLDY    68  62  81 SE15      29.75F
BOWIE          PTCLDY    69  63  80 SE17G23   29.70S
BRIDGEPORT     CLEAR     69  60  73 S12G17    29.74R
DECATUR        PTCLDY    68  60  76 SE15G23   29.74S
DENTON         PTCLDY    69  62  78 S17       29.74F
MCKINNEY       MOCLDY    69  63  81 S14       29.77S
GREENVILLE     PTCLDY    68  63  83 SE8       29.79R
ROCKWALL       MOCLDY    68  63  85 SE9       29.77F
TERRELL        PTCLDY    68  66  93 S7        29.79F
WAXAHACHIE     MOCLDY    66  60  80 S13       29.78S
CLEBURNE       PTCLDY    66  64  94 S15       29.78R
GRANBURY       MOCLDY    70  61  74 SE10G18   29.76S
$$

TXZ083>090-098>101-113>116-127>130-139>142-154-155-241000-
WESTERN NORTH TEXAS

CITY           SKY/WX    TMP DP  RH WIND       PRES   REMARKS
WICHITA FALLS  CLEAR     67  61  81 S14G21    29.67R
WF-KICKAPOO    CLEAR     68  62  80 SE12      29.68R
VERNON         CLEAR     70  61  73 S18       29.64R
ABILENE        CLEAR     70  60  70 S16G25    29.70R
ABILENE-DYESS  CLEAR     71  60  69 S23G31    29.68S
BRECKENRIDGE   CLEAR     72  61  70 S17G28    29.68S
GRAHAM         PTCLDY    70  62  74 SE7G21    29.68R
MINERAL WELLS  CLEAR     69  61  75 S12G24    29.70F
STEPHENVILLE   CLOUDY    68  60  75 S16G22    29.77S
COMANCHE       PTCLDY    68  60  74 S14G22    29.75F
BROWNWOOD      CLOUDY    68  59  73 SE12G18   29.75F
COLEMAN        CLEAR     68  58  70 S8        29.75R
BRADY          CLEAR     66  57  72 SE10      29.76S
$$

TXZ143>147-156>162-174-175-241000-
CENTRAL TEXAS

CITY           SKY/WX    TMP DP  RH WIND       PRES   REMARKS
WACO           PTCLDY    67  62  84 S15       29.79S
WACO-MCGREGOR  PTCLDY    66  57  72 S12       29.80S
HILLSBORO      PTCLDY    67  60  78 S13       29.78S
CORSICANA      MOCLDY    69  62  78 S10       29.80R
MEXIA          CLOUDY    66  62  86 S9        29.79S
HEARNE         MOCLDY    68  64  86 SE8       29.81S
CAMERON        CLOUDY    67  63  86 S5        29.80S
TEMPLE         MOCLDY    66  57  72 S14       29.83R
KILLEEN        PTCLDY    64  61  88 S12       29.79S
KILLEEN-SKYLRK PTCLDY   N/A N/A N/A SE10      29.79R
FORT HOOD      PTCLDY    68  61  78 SE10      29.79R
GATESVILLE     CLEAR     66  63  88 S8        29.80S
HAMILTON       CLEAR     66  59  78 S15G24    29.78S
LAMPASAS       PTCLDY    65  62  88 S6        29.78S
$$

TXZ095>097-106>112-122>126-135>138-148>153-164>167-241000-
EAST TEXAS

CITY           SKY/WX    TMP DP  RH WIND       PRES   REMARKS
PARIS          PTCLDY    64  57  77 SE8       29.81S
SULPHUR SPRNGS PTCLDY    67  61  80 SE7       29.82S
CLARKSVILLE    PTCLDY    66  58  75 SE5       29.81F
MOUNT PLEASANT MOCLDY    63  60  90 SE5       29.84S
GILMER         CLOUDY    68  64  88 S3        29.84F
MINEOLA        MOCLDY    68  63  83 S3        29.82S
TYLER          CLOUDY    68  63  84 S10       29.81F
LONGVIEW       CLOUDY    67  62  84 S8        29.83R
MARSHALL       CLOUDY    63  60  91 CALM      29.87R
ATHENS         CLOUDY    68  63  83 S14G20    29.81R
PALESTINE      CLOUDY    68  62  81 S9        29.84R
JACKSONVILLE   CLOUDY    65  62  87 S7        29.84S
HENDERSON      CLOUDY    66  62  86 S5        29.85R
NACOGDOCHES    CLOUDY    66  63  88 S12       29.84S
LUFKIN         CLOUDY    69  64  84 S6        29.84S
$$

SUPPLEMENTAL OBSERVATIONS (CENTRAL)

CITY           SKY/WX    TMP DP  RH WIND       PRES   REMARKS
LAKE TEXOMA      N/A     66  63  88 SE10        N/A
CADDO GRASSLND   N/A     66  59  77 S8          N/A
PAT MAYSE LAKE   N/A     66  59  77 E7          N/A
GREENVILLE       N/A     66  61  82 SE3         N/A
CEDAR HILL       N/A     68  61  77 S13         N/A
PALESTINE        N/A     68  63  83 S8G17       N/A
LAKE LIMESTONE   N/A     66  61  82 S9          N/A
MCGREGOR         N/A     66  61  82 S13         N/A
TEMPLE           N/A     66  63  88 S10         N/A
$$

SUPPLEMENTAL OBSERVATIONS (WEST)

CITY           SKY/WX    TMP DP  RH WIND       PRES   REMARKS
MILLERS CREEK    N/A     70  63  78 SW8         N/A
POSSUM KINGDOM   N/A     70  63  78 S10G20      N/A
LBJ GRASSLAND    N/A    N/A N/A N/A SE13        N/A
GRANBURY         N/A     70  63  78 S14G25      N/A
COMANCHE         N/A     66  57  72 S13         N/A
HAMBY            N/A    N/A N/A N/A S17G24      N/A
IVIE RESERVOIR   N/A    N/A N/A N/A SE7         N/A
COLORADO BEND    N/A     64  59  82 S7          N/A
$$

SUPPLEMENTAL OBSERVATIONS (EAST)

CITY           SKY/WX    TMP DP  RH WIND       PRES   REMARKS
CLARKSVILLE      N/A     64  59  82 S6          N/A
TEXARKANA        N/A     55  52  88 CALM        N/A
LINDEN           N/A     61  57  88 CALM        N/A
CADDO LAKE       N/A     59  57  94 CALM        N/A
GILMER           N/A     66  61  82 S3          N/A
HENDERSON        N/A     66  63  88 S8          N/A
LUFKIN           N/A     66  61  82 MISG        N/A
N SABINE NF      N/A     64  63  94 MISG        N/A
S SABINE NF      N/A     64  63  94 E1          N/A
$$

SUPPLEMENTAL OBSERVATIONS ARE A COLLECTION OF AUTOMATED INSTRUMENTS
THAT ARE MAINTAINED BY A VARIETY OF FEDERAL AND STATE AGENCIES.
CERTAIN ELEMENTS...SUCH AS HUMIDITY VALUES AND SUSTAINED WIND
SPEEDS...MAY BE APPROXIMATED.




USA.gov is the U.S. government's official web portal to all federal, state and local government web resources and services.